Find Starlink 33963

NORAD ID: 63968 Int'l Des: 2025-099 Owner: SPXS Country: US Constellation: starlink operational
LEOCIRCULAR

Current View

Loading 3D Globe...

About Starlink 33963

Starlink 33963 (NORAD 63968) is a starlink constellation satellite (v2 mini) launched May 13, 2025 by SPXS of US. It operates in LEO, CIRCULAR orbit with a mass of 575.00 kg.

Upcoming Passes

Passes for default location (London). Set your location on the main map for personalized predictions.

Altitude History

Loading altitude history...

Two-Line Element Set

1 63968U 25099S 26263.11096749 .00014592 00000-0 53855-3 0 9993
2 63968 43.0079 157.9489 0003513 242.2478 117.8017 15.27588454 77076
Epoch: Sep 20, 2026 • Age: 29 hours

Current Status

Altitude 488.2 km
Apogee / Perigee N/A
Velocity 7.63 km/s
Sub-Earth Point 41.97°N, 115.85°E
Launch Date May 13, 2025
Age 1.3 years
Type internet

Technical Details

Classification Payload
Mass 575.00 kg
Dry Mass 530.00 kg
Length 0.30 m
Span 29.00 m
Shape ? Box + pan
Manufacturer SPXS
Bus Type Starlink V2MO
Phase Status In Orbit
Owner/State SPXS/US

Most Searched